Flag for Paraguay Weather past 2 weeks in Ciudad del Este, Paraguay

70 °F

Thunderstorms. Mostly cloudy.

Feels Like: 70 °F
Forecast: 71 / 76 °F
Wind: 9 mph from Northeast

Location: Foz Do Iguacu Aeroporto

Current Time: Nov 28, 2015 at 4:00:26 AM

Latest Report: Nov 28, 2015 at 3:00 AM

Visibility: N/A

Pressure: N/A

Humidity: 94%

Dew point: 68 °F

Location of Ciudad del EsteLocation

Historic Weather in Ciudad del Este — Graph


Ciudad del Este temperature yesterday

Maximum temperature yesterday: 82 °F (at 4:00 PM)
Minimum temperature yesterday: 70 °F (at 8:00 PM)
Average temperature yesterday: 75 °F

Past Weeks' High & Low Weather Summary

High95 °F (Nov 13, 2:00 PM)100% (Nov 17, 4:00 AM)29.95 "Hg (Nov 17, 4:00 AM)
Low34 °F (Nov 18, 8:00 AM)41% (Nov 13, 4:00 PM)29.47 "Hg (Nov 19, 4:00 PM)
Average74 °F85%29.77 "Hg
* Reported Nov 13 3:00 AM — Nov 28 3:00 AM, Ciudad del Este, Weather by CustomWeather, © 2015

Note: Actual official high and low records may vary slightly from our data, if they occured in-between our weather recording intervals... More about our weather records


Ciudad del Este weather history for previous 24 hours

Time TempWeatherWind HumidityBarometerVisibility
3:00 AM
Sat, Nov 28
70 °FThunderstorms. Mostly cloudy.9 mph94%N/AN/A
2:00 AM70 °FThunderstorms. Mostly cloudy.14 mph94%N/AN/A
1:00 AM70 °FThunderstorms. Mostly cloudy.10 mph94%N/AN/A
12:00 AM70 °FThunderstorms. Mostly cloudy.6 mph94%N/A3 mi
11:00 PM
Fri, Nov 27
70 °FThunderstorms. Passing clouds.10 mph94%29.83 "HgN/A
10:00 PM70 °FThunderstorms. Low clouds.12 mph94%29.80 "HgN/A
9:00 PM70 °FThunderstorms. Overcast.7 mph94%N/AN/A
8:00 PM70 °FStrong thunderstorms. Passing clouds.12 mph94%29.80 "Hg1 mi
7:00 PM73 °FThunderstorms. Mostly cloudy.16 mph83%N/AN/A
6:00 PM81 °FPartly sunny.13 mph84%29.71 "HgN/A
5:00 PM82 °FPartly sunny.7 mph84%29.71 "HgN/A
4:00 PM82 °FPartly sunny.7 mph79%29.68 "HgN/A
3:00 PM81 °FBroken clouds.10 mph79%29.71 "HgN/A
2:00 PM77 °FPartly sunny.12 mph83%29.77 "HgN/A
1:00 PM75 °FPartly sunny.8 mph89%29.80 "HgN/A
12:00 PM75 °FThunderstorms. Partly sunny.12 mph89%29.77 "HgN/A
11:00 AM75 °FThunderstorms. Partly sunny.3 mph89%N/AN/A
10:00 AM77 °FBroken clouds.2 mph89%29.80 "HgN/A
9:00 AM77 °FPartly sunny.5 mph83%29.80 "HgN/A
8:00 AM75 °FPartly sunny.7 mph83%29.80 "HgN/A
7:00 AM73 °FSunny.5 mph89%29.80 "Hg10 mi
6:00 AM72 °FSunny.6 mph94%29.80 "Hg10 mi
5:00 AM72 °FClear.3 mph94%29.80 "Hg10 mi
4:00 AM73 °FClear.5 mph89%29.77 "Hg10 mi
Weather by CustomWeather, © 2015

See weather overviewHow to use our weather pages